User: anonymous   Login
Location: Obersdorf
(47.4079°N, 10.2781°E)
Time: 12:55:39
(UTC+01:00)
Language:

HuskySat-1 - Orbit

View from above orbital plane
View from above orbital plane
View from above satellite
View from above satellite

Ground track
Ground track

The orbit data is extracted from the following two-line orbital elements,

1 45117U 19071G   21340.06518981  .00008262  00000-0  22153-3 0  9998
2 45117  51.6406 281.7363 0009061 186.7216 173.3648 15.38827378103580
Epoch (UTC): 06 December 2021 01:33:52
Eccentricity: 0.0009061
inclination: 51.6406°
perigee height: 443 km
apogee height: 456 km
right ascension of ascending node: 281.7363°
argument of perigee: 186.7216°
revolutions per day: 15.38827378
mean anomaly at epoch: 173.3648°
orbit number at epoch: 10358

The dashed part of the orbit path shows where the satellite is in the earth's shadow,  

DLR